Flag for Canada Weather past 2 weeks in Oshawa, Ontario, Canada

Now
25 °F

Passing clouds.


Feels Like: 19 °F
Forecast: 21 / 29 °F
Wind: 5 mph from North

Location: Toronto Buttonville

Current Time: Dec 19, 2014 at 11:44:20 PM

Latest Report: Dec 19, 2014 at 11:00 PM


Visibility: 15 mi

Pressure: 30.30 "Hg

Humidity: 80%

Dew point: 19 °F

Location of OshawaLocation

Historic Weather in Oshawa — Graph

°F

Oshawa temperature yesterday

Maximum temperature yesterday: 30 °F (at 12:00 AM)
Minimum temperature yesterday: 23 °F (at 10:00 PM)
Average temperature yesterday: 28 °F

Past Weeks' High & Low Weather Summary

 TemperatureHumidityPressure
High39 °F (Dec 6, 1:00 PM)100% (Dec 9, 8:00 AM)30.81 "Hg (Dec 9, 8:00 AM)
Low18 °F (Dec 7, 8:00 AM)40% (Dec 7, 2:00 PM)29.74 "Hg (Dec 16, 2:00 PM)
Average31 °F82%30.14 "Hg
* Reported Dec 4 10:00 PM — Dec 19 10:00 PM, Oshawa, Weather by CustomWeather, © 2014

Note: Actual official high and low records may vary slightly from our data, if they occured in-between our weather recording intervals... More about our weather records

Advertising

Oshawa weather history for previous 24 hours

 ConditionsComfort  
Time TempWeatherWind HumidityBarometerVisibility
10:00 PM
Dec 19
25 °FPassing clouds.3 mph80%30.30 "Hg15 mi
9:00 PM25 °FPassing clouds.5 mph86%30.29 "Hg15 mi
8:00 PM27 °FPassing clouds.3 mph80%30.28 "Hg15 mi
7:55 PMN/APassing clouds.5 mphN/AN/A15 mi
7:00 PM28 °FMostly cloudy.7 mph80%30.28 "Hg15 mi
6:00 PM28 °FPassing clouds.7 mph74%30.25 "Hg15 mi
5:00 PM28 °FPassing clouds.12 mph74%30.23 "Hg15 mi
4:00 PM28 °FPartly sunny.9 mph69%30.22 "Hg15 mi
3:00 PM28 °FPartly sunny.13 mph69%30.21 "Hg15 mi
2:00 PM28 °FPartly sunny.13 mph69%30.20 "Hg15 mi
1:00 PM28 °FPartly sunny.9 mph69%30.19 "Hg15 mi
12:00 PM28 °FPartly sunny.9 mph69%30.20 "Hg15 mi
11:00 AM27 °FPartly sunny.9 mph69%30.22 "Hg15 mi
10:00 AM25 °FPartly sunny.12 mph74%30.22 "Hg15 mi
9:00 AM23 °FPartly sunny.10 mph80%30.21 "Hg15 mi
8:00 AM21 °FPartly sunny.7 mph80%30.20 "Hg15 mi
7:00 AM19 °FPartly cloudy.8 mph79%30.18 "Hg15 mi
6:00 AM21 °FOvercast.9 mph80%30.16 "Hg15 mi
5:00 AM21 °FOvercast.12 mph80%30.16 "Hg15 mi
4:00 AM23 °FOvercast.13 mph80%30.15 "Hg15 mi
3:00 AM21 °FOvercast.9 mph86%30.15 "Hg15 mi
2:00 AM21 °FOvercast.13 mph86%30.14 "Hg15 mi
1:00 AM21 °FOvercast.14 mph86%30.13 "Hg15 mi
12:00 AM23 °FOvercast.13 mph80%30.13 "Hg15 mi
11:00 PM
Dec 18
23 °FOvercast.10 mph80%30.13 "Hg15 mi
Weather by CustomWeather, © 2014

See weather overviewHow to use our weather pages